Regional Weather Roundup
Issued by NWS

Home | Current Version | Previous Version | Graphics & Text | Print | Product List | Glossary On
Versions: 1 2 3 4 5 6 7 8 9 10 11 12 13 14 15 16 17 18 19 20 21 22 23 24 25 26 27 28 29 30 31 32 33 34 35 36 37 38 39 40 41 42 43 44 45 46 47 48 49 50
000
ASUS43 KIND 151959
RWRIN

WEATHER ROUNDUP FOR INDIANA
NATIONAL WEATHER SERVICE INDIANAPOLIS IN
300 PM EST SUN JAN 15 2017

NOTE: "FAIR" INDICATES FEW OR NO CLOUDS BELOW 12,000 FEET WITH NO
SIGNIFICANT WEATHER AND/OR OBSTRUCTIONS TO VISIBILITY.

* - STATION DOES NOT REPORT WEATHER SUCH AS PRECIPITATION OR FOG.

+ - STATION NOT QUALITY CONTROLLED BY THE NATIONAL WEATHER SERVICE.
    USE DATA WITH CAUTION...ESPECIALLY DEWPOINT AND RELATIVE
    HUMIDITY OBSERVATIONS.

INZ001>003-010>013-019-020-152100-
NORTHWEST INDIANA

CITY           SKY/WX    TMP DP  RH WIND       PRES   REMARKS
GARY /AIRPORT/ PTSUNNY   36  23  60 CALM      30.37F
MICHIGAN CITY+ CLOUDY    34  27  75 CALM      30.36F
MONTICELLO +   PTSUNNY   33  26  74 NE6       30.35F WCI  28

$$

LMZ046-743>745-152100-
SOUTHERN LAKE MICHIGAN

STATION/POSITION TIME  TEMP    WIND        PRES    WAVE
                       AIR SEA DIR/SP/G            HT
                 (UTC) (F)     (DEG/KT/KT) (MB)    (FT)
BURNS HARBOR     1940   31      CALM  /  2 1028.4F
MICHIGAN CITY    1930   32        CALM       N/A

$$

INZ004-005-014>016-021>024-152100-
NORTH CENTRAL INDIANA

CITY           SKY/WX    TMP DP  RH WIND       PRES   REMARKS
ELKHART        SUNNY     34  21  60 CALM      30.36F
GOSHEN         CLOUDY    35  24  64 CALM      30.35F
SOUTH BEND     MOSUNNY   33  23  66 S5        30.36F WCI  29

$$

INZ006>009-017-018-025>027-152100-
NORTHEAST INDIANA

CITY           SKY/WX    TMP DP  RH WIND       PRES   REMARKS
ANGOLA *+      SUNNY     32  18  55 CALM      30.35F
FORT WAYNE     CLOUDY    33  21  61 E3        30.37F
KENDALLVILLE + CLOUDY    32  22  66 CALM      30.35F

$$

INZ028-029-035-036-043>045-051>053-152100-
WEST CENTRAL INDIANA

CITY           SKY/WX    TMP DP  RH WIND       PRES   REMARKS
CRAWFORDSVL +  CLOUDY    32  30  93 E5        30.33F WCI  27
LAFAYETTE      CLOUDY    34  27  75 E5        30.34F WCI  30
TERRE HAUTE    CLOUDY    36  30  79 E5        30.33F HAZE

$$

INZ030>032-037>040-046>048-054>057-064-065-152100-
CENTRAL INDIANA

CITY           SKY/WX    TMP DP  RH WIND       PRES   REMARKS
COLUMBUS       LGT RAIN  36  36 100 NE5       30.33F FOG
INDIANAPOLIS   CLOUDY    35  29  78 E5        30.33F FOG     WCI  31
-EAGLE CREEK   CLOUDY    35  28  75 CALM      30.32F
KOKOMO +       CLOUDY    33  26  75 E6        30.35F WCI  28
MT COMFORT *+  CLOUDY    32  30  93 E5        30.33F WCI  27
SHELBYVILLE    CLOUDY    36  31  82 E5        30.32F HAZE

$$

INZ033-034-041-042-049-050-058-059-152100-
EAST CENTRAL INDIANA

CITY           SKY/WX    TMP DP  RH WIND       PRES   REMARKS
MUNCIE         CLOUDY    35  28  75 E7        30.33F WCI  29

$$

INZ060-061-067>069-081>083-085>088-152100-
SOUTHWEST INDIANA

CITY           SKY/WX    TMP DP  RH WIND       PRES   REMARKS
EVANSVILLE     LGT RAIN  40  38  93 E5        30.31F FOG
HUNTINGBURG *+ LGT RAIN  38  37  97 NE7       30.31F FOG

$$

INZ062-063-066-070>080-084-089>092-152100-
SOUTH CENTRAL AND SOUTHEAST INDIANA

CITY           SKY/WX    TMP DP  RH WIND       PRES   REMARKS
BLOOMINGTON    LGT RAIN  36  33  89 E5        30.31F FOG
MADISON *+     CLOUDY    37  36  93 NE3       30.34S
SEYMOUR +      RAIN      39  37  93 NE3       30.33F

$$





USA.gov is the U.S. government's official web portal to all federal, state and local government web resources and services.